[[{"header":{"parameterUnit":"m.s-1","parameterCategory":1,"la1":30.2991,"la2":30.254,"lo1":-89.0895,"lo2":-89.0444,"dy":0.0017,"dx":0.0017,"nx":28,"ny":28,"refTime":"2025-04-29T21:00:00:Z","depth":0,"parameterNumber":2,"parameterNumberName":"U-component_of_WINDS"},"data":[0,0,0,0,0,0,0,0,0,0,0,0,0,0,0,0,0,0,0,0,0,0,0,0,0,0,0,0,0,0,0,0,0,0,0,0,0,0,0,0,0,0,0,0,0,0,0,0,0,0,0,0,0,0,0,0,0,0,-0.8996,-0.8996,0,-0.8915,-0.8914,-0.8913,-0.8875,-0.8875,-0.8875,-0.8875,-0.8789,-0.8787,-0.8785,0,0,0,0,0,0,0,0,0,0,0,0,0,-0.9116,-0.9114,-0.8997,-0.8995,-0.8994,-0.8915,-0.8914,-0.8913,-0.8875,-0.8875,-0.8875,-0.8876,-0.879,-0.8787,-0.8784,0,0,0,0,0,0,0,0,0,0,0,0,0,-0.9052,-0.9113,-0.8997,-0.8966,-0.8963,-0.8916,-0.8914,-0.8913,-0.8875,-0.8875,-0.8875,-0.8876,-0.8791,-0.8787,-0.8784,-0.876,0,0,-0.8773,-0.8772,0,0,0,0,0,0,0,0,-0.9056,-0.9048,-0.8972,-0.8968,-0.8964,-0.8906,-0.8925,-0.8862,-0.8875,-0.8908,-0.8875,-0.8876,-0.8828,-0.8821,-0.8805,-0.8756,-0.8752,-0.8773,-0.8771,-0.8769,-0.8768,0,0,0,0,0,0,0,-0.906,-0.9051,-0.8964,-0.8971,-0.8966,-0.8956,-0.8947,-0.8913,-0.8868,-0.8905,-0.8903,-0.8894,-0.8826,-0.8809,-0.8803,-0.8751,-0.8773,-0.877,-0.8768,-0.8766,-0.8678,-0.8678,0,0,0,0,0,0,-0.907,-0.9055,-0.8967,-0.8962,-0.9011,-0.8953,-0.8943,-0.8924,-0.8869,-0.886,-0.8894,-0.8892,-0.8815,-0.8807,-0.88,-0.8769,-0.8769,-0.8766,-0.8764,-0.8679,-0.8678,-0.8678,0,0,0,0,0,0,-0.9073,-0.9063,-0.897,-0.9008,-0.8995,-0.8951,-0.893,-0.8923,-0.8906,-0.886,-0.8851,-0.8885,-0.8815,-0.8805,-0.8771,-0.8765,-0.8764,-0.8761,-0.8679,-0.8679,-0.8678,-0.8706,0,0,0,0,0,0,-0.9077,-0.9064,-0.9055,-0.9008,-0.8993,-0.8943,-0.893,-0.8921,-0.89,-0.8898,-0.8849,-0.8841,-0.8814,-0.8776,-0.8767,-0.876,-0.8758,-0.8679,-0.8679,-0.8678,-0.8705,-0.8707,-0.8708,0,0,0,0,0,-0.9081,-0.9065,-0.9055,-0.9044,-0.8981,-0.8943,-0.8934,-0.8904,-0.89,-0.889,-0.8861,-0.8843,-0.8767,-0.8773,-0.8762,-0.8754,-0.8679,-0.8679,-0.8678,-0.8705,-0.8706,-0.8708,0,0,0,0,0,0,-0.9112,-0.9059,-0.9046,-0.9015,-0.8984,-0.8936,-0.8923,-0.8907,-0.8875,-0.8874,-0.8836,-0.8826,-0.8795,-0.8771,-0.8778,-0.8729,-0.8722,-0.8719,-0.8745,-0.8746,-0.8748,-0.8754,-0.8755,0,0,0,0,0,-0.9115,-0.9089,-0.9044,-0.9021,-0.9006,-0.8967,-0.8949,-0.8929,-0.8894,-0.8881,-0.8848,-0.8815,-0.8784,-0.8764,-0.8732,-0.8702,-0.8691,-0.8691,-0.8692,-0.8694,-0.8692,-0.8674,-0.8673,-0.8677,-0.8677,-0.8677,0,0,-0.9122,-0.9089,-0.9075,-0.9026,-0.8999,-0.8972,-0.8956,-0.8928,-0.8908,-0.8876,-0.8842,-0.8817,-0.8777,-0.8745,-0.8729,-0.8724,-0.8688,-0.8693,-0.8694,-0.8691,-0.8673,-0.8673,-0.8673,-0.8676,-0.8676,-0.8676,0,0,-0.912,-0.9093,-0.9071,-0.9045,-0.9005,-0.898,-0.8974,-0.8929,-0.8912,-0.8878,-0.8853,-0.8828,-0.8775,-0.8748,-0.8727,-0.8715,-0.8698,-0.8706,-0.8712,-0.8695,-0.8695,-0.8694,-0.869,-0.8689,-0.8704,-0.8704,-0.8704,0,-0.9132,-0.9092,-0.9061,-0.9035,-0.9014,-0.8985,-0.8962,-0.8938,-0.889,-0.8875,-0.8871,-0.8804,-0.8775,-0.8736,-0.8734,-0.8718,-0.871,-0.8711,-0.8698,-0.8697,-0.8696,-0.8691,-0.869,-0.8706,-0.8705,-0.8705,-0.8705,0,-0.9109,-0.9081,-0.9068,-0.9023,-0.9001,-0.8976,-0.8941,-0.8922,-0.8904,-0.8879,-0.8844,-0.8808,-0.877,-0.8759,-0.874,-0.8717,-0.8715,-0.8705,-0.8697,-0.8697,-0.8693,-0.8691,-0.8707,-0.8707,-0.8707,-0.8706,0,0,-0.9123,-0.9063,-0.9058,-0.9038,-0.8993,-0.897,-0.8944,-0.8907,-0.8891,-0.8859,-0.8836,-0.8792,-0.8782,-0.8759,-0.8737,-0.8722,-0.8715,-0.8713,-0.8711,-0.8715,-0.8688,-0.8696,-0.8694,-0.8704,-0.8703,-0.8703,-0.8691,0,-0.9115,-0.9068,-0.904,-0.9004,-0.8978,-0.895,-0.8928,-0.8897,-0.8873,-0.8847,-0.882,-0.879,-0.8779,-0.8765,-0.8749,-0.8719,-0.8709,-0.872,-0.8681,-0.868,-0.8692,-0.8692,-0.87,-0.8691,-0.8689,-0.8689,-0.8688,0,-0.9098,-0.9068,-0.903,-0.8988,-0.8976,-0.8956,-0.892,-0.8895,-0.886,-0.8843,-0.8818,-0.8796,-0.8767,-0.8762,-0.8721,-0.8729,-0.8712,-0.8695,-0.8694,-0.8689,-0.8684,-0.8686,-0.8687,-0.8685,-0.8685,-0.8685,-0.8685,0,-0.9112,-0.9062,-0.9033,-0.9016,-0.8966,-0.8953,-0.8931,-0.8896,-0.8876,-0.8844,-0.883,-0.8796,-0.8776,-0.875,-0.8719,-0.8718,-0.8681,-0.8674,-0.8666,-0.8667,-0.8659,-0.866,-0.8657,-0.8649,-0.8649,-0.8649,-0.8649,0,-0.9105,-0.9083,-0.9039,-0.9021,-0.8995,-0.8963,-0.8938,-0.8914,-0.8883,-0.8859,-0.8833,-0.8811,-0.8772,-0.8745,-0.8721,-0.8691,-0.8682,-0.8668,-0.8662,-0.867,-0.8672,-0.8658,-0.8658,-0.8648,-0.8648,-0.8648,-0.8648,0,-0.9117,-0.9086,-0.9052,-0.9008,-0.8997,-0.898,-0.8941,-0.8923,-0.8898,-0.8868,-0.8859,-0.882,-0.8787,-0.8754,-0.871,-0.8693,-0.8664,-0.8656,-0.8676,-0.8673,-0.8667,-0.8668,-0.8654,-0.8651,-0.8646,-0.8646,-0.8646,0,-0.9114,-0.9097,-0.9051,-0.9034,-0.9013,-0.8986,-0.8965,-0.8933,-0.8913,-0.8871,-0.8857,-0.8823,-0.8794,-0.8743,-0.871,-0.8676,-0.8666,-0.8664,-0.8661,-0.867,-0.8666,-0.8667,-0.8665,-0.8665,-0.8665,-0.8665,-0.8665,0,-0.9113,-0.9099,-0.9071,-0.9038,-0.9014,-0.8986,-0.8957,-0.8944,-0.8906,-0.8885,-0.8851,-0.8829,-0.8784,-0.875,-0.8712,-0.8689,-0.8671,-0.8667,-0.8663,-0.8671,-0.8684,-0.8677,-0.8679,-0.8667,-0.8667,-0.8666,-0.8666,-0.8666,-0.9117,-0.91,-0.9066,-0.9035,-0.901,-0.8984,-0.8964,-0.8938,-0.891,-0.8871,-0.8854,-0.8821,-0.8785,-0.8733,-0.8711,-0.8684,-0.8679,-0.8673,-0.8672,-0.8671,-0.8673,-0.8689,-0.8677,-0.8677,-0.8676,-0.8676,-0.8676,0,-0.9114,-0.9091,-0.9063,-0.9024,-0.9,-0.8986,-0.8953,-0.8934,-0.8906,-0.8875,-0.8847,-0.8809,-0.8776,-0.8741,-0.8706,-0.8691,-0.8682,-0.8683,-0.8684,-0.8679,-0.868,-0.8686,-0.8692,-0.8692,-0.8692,-0.8692,-0.8692,-0.8692,-0.911,-0.9081,-0.9063,-0.9021,-0.8997,-0.8965,-0.8948,-0.8923,-0.8899,-0.8858,-0.8831,-0.8809,-0.8776,-0.8739,-0.8708,-0.8698,-0.8687,-0.869,-0.8679,-0.868,-0.8679,-0.8678,-0.8684,-0.8688,-0.8688,-0.868,-0.868,-0.868]},{"header":{"parameterUnit":"m.s-1","parameterCategory":1,"la1":30.2991,"la2":30.254,"lo1":-89.0895,"lo2":-89.0444,"dy":0.0017,"dx":0.0017,"nx":28,"ny":28,"refTime":"2025-04-29T21:00:00:Z","depth":0,"parameterNumber":3,"parameterNumberName":"V-component_of_WINDS"},"data":[0,0,0,0,0,0,0,0,0,0,0,0,0,0,0,0,0,0,0,0,0,0,0,0,0,0,0,0,0,0,0,0,0,0,0,0,0,0,0,0,0,0,0,0,0,0,0,0,0,0,0,0,0,0,0,0,0,0,4.636,4.636,0,4.6417,4.6418,4.6419,4.6416,4.6416,4.6415,4.6414,4.6467,4.647,4.6472,0,0,0,0,0,0,0,0,0,0,0,0,0,4.624,4.6242,4.636,4.636,4.6361,4.6417,4.6418,4.6419,4.6417,4.6416,4.6415,4.6414,4.6467,4.6469,4.6472,0,0,0,0,0,0,0,0,0,0,0,0,0,4.6294,4.6243,4.6359,4.6367,4.6368,4.6417,4.6418,4.6419,4.6417,4.6416,4.6414,4.6413,4.6466,4.6469,4.6472,4.6516,0,0,4.6482,4.6484,0,0,0,0,0,0,0,0,4.6291,4.6298,4.6365,4.6366,4.6368,4.6409,4.6395,4.6451,4.6417,4.6398,4.6414,4.6413,4.6448,4.6453,4.6466,4.6518,4.6521,4.6482,4.6484,4.6486,4.6487,0,0,0,0,0,0,0,4.6287,4.6296,4.6382,4.6366,4.6368,4.6365,4.6371,4.6406,4.6429,4.64,4.64,4.6407,4.6449,4.6463,4.6467,4.6521,4.6482,4.6485,4.6487,4.6488,4.6608,4.661,0,0,0,0,0,0,4.6283,4.6293,4.638,4.6384,4.6326,4.6368,4.6375,4.6397,4.6429,4.6433,4.6408,4.6407,4.6458,4.6464,4.6469,4.6521,4.6486,4.6489,4.6491,4.6607,4.6609,4.661,0,0,0,0,0,0,4.628,4.6291,4.6378,4.6338,4.6349,4.6371,4.6395,4.6398,4.6413,4.6435,4.6438,4.6419,4.6458,4.6465,4.6504,4.6522,4.649,4.6493,4.6606,4.6608,4.6609,4.6625,0,0,0,0,0,0,4.6277,4.629,4.6309,4.6339,4.6352,4.6414,4.6397,4.64,4.6419,4.6418,4.6446,4.6449,4.6457,4.6499,4.6507,4.6526,4.6496,4.6604,4.6607,4.6609,4.6623,4.6627,4.663,0,0,0,0,0,4.6273,4.631,4.631,4.632,4.6376,4.6415,4.6422,4.6432,4.6421,4.6438,4.6452,4.6448,4.6519,4.6503,4.6512,4.6533,4.6603,4.6606,4.6609,4.6621,4.6626,4.663,0,0,0,0,0,0,4.628,4.6314,4.6314,4.6363,4.6387,4.6415,4.6438,4.6438,4.6463,4.6461,4.647,4.6476,4.6515,4.6528,4.6509,4.6575,4.6559,4.6564,4.6565,4.657,4.6574,4.657,4.6498,0,0,0,0,0,4.6288,4.6319,4.6347,4.6387,4.6399,4.6416,4.6434,4.6439,4.6463,4.6472,4.6489,4.651,4.6537,4.6554,4.658,4.6624,4.6629,4.6642,4.6646,4.6649,4.6653,4.6674,4.668,4.6619,4.6619,4.6619,0,0,4.6304,4.6326,4.6345,4.6389,4.6408,4.6437,4.6425,4.6457,4.6478,4.6476,4.6515,4.6527,4.6551,4.6592,4.6611,4.6604,4.6671,4.6653,4.6655,4.6657,4.6678,4.6683,4.6689,4.6621,4.6621,4.6621,0,0,4.6348,4.6369,4.6404,4.6422,4.6451,4.6462,4.647,4.6498,4.6507,4.6545,4.6544,4.6568,4.6614,4.6631,4.6645,4.6692,4.6689,4.67,4.672,4.6741,4.6746,4.675,4.6765,4.677,4.6704,4.6704,4.6704,0,4.6363,4.641,4.6421,4.6454,4.6471,4.6472,4.6505,4.6522,4.6557,4.6568,4.656,4.6617,4.6633,4.6677,4.6688,4.67,4.6708,4.6697,4.6744,4.6749,4.6753,4.6767,4.6773,4.6705,4.6705,4.6704,4.6704,0,4.6426,4.6459,4.6483,4.6517,4.6538,4.6571,4.6584,4.6602,4.6605,4.6616,4.6653,4.6673,4.6701,4.6712,4.6715,4.6755,4.675,4.6743,4.6727,4.676,4.6773,4.6778,4.6706,4.6706,4.6706,4.6705,0,0,4.6479,4.6517,4.6526,4.654,4.657,4.6594,4.6625,4.6654,4.6669,4.6692,4.6717,4.6755,4.6748,4.6765,4.6769,4.6787,4.682,4.6778,4.6778,4.6784,4.6863,4.6867,4.6873,4.6818,4.6819,4.682,4.686,0,4.6525,4.6582,4.6591,4.664,4.6668,4.6667,4.6694,4.6714,4.6724,4.6747,4.6757,4.6783,4.6774,4.6783,4.6801,4.6812,4.6836,4.6809,4.6839,4.684,4.6832,4.6881,4.6886,4.6923,4.6866,4.6867,4.6867,0,4.6587,4.6612,4.6664,4.6688,4.67,4.6724,4.675,4.6773,4.6793,4.6799,4.6816,4.6818,4.6847,4.683,4.6869,4.6851,4.6863,4.687,4.6871,4.6874,4.6855,4.6883,4.6935,4.6941,4.6876,4.6875,4.6874,0,4.6617,4.6664,4.6701,4.6713,4.6742,4.6758,4.6771,4.6791,4.6807,4.6829,4.6839,4.6863,4.6876,4.6894,4.6901,4.6889,4.6938,4.6923,4.6942,4.6942,4.6952,4.6952,4.7006,4.6962,4.6962,4.6962,4.6961,0,4.6667,4.6699,4.6715,4.6737,4.6771,4.678,4.6812,4.6824,4.6841,4.6863,4.6864,4.6884,4.6893,4.6914,4.6919,4.6949,4.6955,4.6959,4.696,4.6959,4.6958,4.6966,4.6964,4.6963,4.6963,4.6962,4.6962,0,4.6708,4.672,4.6759,4.6783,4.6789,4.6813,4.6832,4.6852,4.6861,4.689,4.6897,4.691,4.6935,4.6944,4.6974,4.6977,4.7011,4.7011,4.7005,4.7005,4.7023,4.7021,4.7084,4.7092,4.7043,4.7044,4.7044,0,4.6739,4.6763,4.6788,4.6804,4.6817,4.6843,4.6859,4.6867,4.6883,4.6907,4.6924,4.6949,4.6969,4.7008,4.7019,4.7041,4.704,4.7061,4.7044,4.7041,4.7039,4.7037,4.7039,4.7064,4.7065,4.7065,4.7065,0,4.6791,4.6795,4.682,4.6845,4.6865,4.6885,4.6904,4.6916,4.6927,4.6944,4.697,4.6986,4.7016,4.704,4.7062,4.7072,4.707,4.7071,4.7076,4.7075,4.707,4.7071,4.7013,4.7069,4.7069,4.7069,4.7068,4.7068,4.6827,4.6847,4.6868,4.6894,4.6909,4.6927,4.6946,4.6957,4.6979,4.7005,4.7008,4.7035,4.7052,4.7082,4.7093,4.7112,4.7107,4.7115,4.7117,4.7118,4.7119,4.7067,4.7117,4.7117,4.7116,4.7116,4.7116,0,4.6879,4.6891,4.6915,4.6942,4.6961,4.6958,4.6979,4.6995,4.7019,4.7036,4.7055,4.7083,4.7106,4.7118,4.714,4.7153,4.7152,4.7158,4.7157,4.7159,4.7124,4.7116,4.7158,4.7158,4.7158,4.7158,4.7158,4.7158,4.6908,4.6941,4.6947,4.6987,4.6999,4.7026,4.7038,4.7053,4.7066,4.7097,4.7116,4.7124,4.7138,4.7161,4.718,4.7183,4.719,4.7197,4.7199,4.7166,4.7162,4.7157,4.715,4.7199,4.7199,4.7232,4.7232,4.7233]}]]